Simultaneous Nadir Overpasses (SNOs) Predictions

Prediction of SNOs between AQUA and NOAA-19 Satellite Orbit:

Table of predicted SNOs for the next 14.0 days since TLE Epoch: 10/26/2012
Index Date (AQUA) Time (AQUA) AQUA Lat,Lon Date (NOAA-19) Time (NOAA-19) NOAA-19 Lat,Lon Distance(km) Time Diff (sec)
1 10/27/2012 04:08:00 46.04, -29.65 10/27/2012 04:07:48 45.95, -29.24 32.88 12
2 10/27/2012 04:50:12 -71.26, 156.27 10/27/2012 04:51:25 -71.07, 157.55 50.53 73
3 10/29/2012 08:52:07 46.45,-100.55 10/29/2012 08:52:14 46.38,-100.20 27.82 7
4 10/29/2012 09:24:05 -68.05,-138.08 10/29/2012 09:25:17 -67.67,-140.07 93.36 72
5 10/31/2012 12:47:04 -46.01, 20.58 10/31/2012 12:46:00 -45.91, 21.21 50.01 64
6 10/31/2012 13:36:00 47.63,-171.15 10/31/2012 13:36:27 47.55,-170.85 24.13 27
7 11/02/2012 17:31:16 -46.02, -50.47 11/02/2012 17:30:33 -45.90, -49.93 44.05 43
8 11/02/2012 18:19:52 48.82, 118.27 11/02/2012 18:20:39 48.77, 118.53 20.22 47
9 11/04/2012 22:15:27 -46.03,-121.52 11/04/2012 22:15:05 -45.94,-121.04 37.88 22
10 11/04/2012 23:03:42 50.07, 47.74 11/04/2012 23:04:50 50.03, 47.96 16.62 68
11 11/07/2012 02:59:37 -46.04, 167.45 11/07/2012 02:59:37 -45.97, 167.84 31.51 0
12 11/07/2012 03:39:19 78.49, 13.76 11/07/2012 03:40:32 78.07, 15.68 63.86 73
13 11/09/2012 07:43:25 -47.30, 96.89 11/09/2012 07:43:47 -47.24, 97.23 26.91 22




NCC Satellite Simultaneous Nadir Overpasses (SNOs) Prediction Service
